星链-2675 (STARLINK-2675 )

导读 | 星芒AI

STARLINK-2675 是 SpaceX Starlink 卫星互联网项目中的第 2675 颗卫星。该卫星属于低轨通信卫星群,旨在为全球用户提供高速、低延迟的互联网服务。它于近期通过猎鹰 9 号火箭发射升空,加入 Starlink 轨道星座,增强网络覆盖与连接稳定性。该计划致力于改善偏远地区网络接入,推动全球数字化进程。

基本信息
目录编号:
48470
目录名称:
STARLINK-2675
国际标识:
2021-040AU
轨道中心:
EARTH
卫星名称:
星链-2675
卫星全名:
星链-2675 (STARLINK-2675 )
卫星状态:
在轨 (已飞行1684 天)
发射日期:
2021-05-09 UTC
国别 :
美国 (US)
星等 :
--
轨道信息
数据来源 国际轨道数据 AOE轨道数据
星历时间 2025-12-18T05:05:04+0800
14小时前
查看轨道信息
2025-12-15T20:00:00+0800
2天前
查看轨道信息
半长轴 6925.331km 6925.338km
偏心率 0.0001525 0.0001598
轨道倾角 53.054° 53.053°
近地点辐角 87.238° 73.088°
升交点赤经 199.228° 209.907°
平近点角 272.879° 341.120°
近地点 546.139km 546.096km
远地点 548.253km 548.31km
周期 95.592分钟 95.592分钟
每日圈数 15.064058 15.064035
详细信息
固有亮度:
5
最大亮度:
2.5
卫星平台:
Starlink V1.0
覆盖范围:
全球
运营商:
太空探索技术公司
运营商所在国:
美国
制造商(研发单位):
太空探索技术公司
制造商所在国:
美国
使用方式:
暂无
卫星简介
星链(Starlink)计划是由太空探索技术公司(SpaceX)提出的一个巨型低轨卫星互联网星座项目,计划在2019年至2024年间在太空搭建由约1.2万颗卫星组成的“星链”网络,其中1584颗将部署在地球上空550千米处的近地轨道,并从2020年开始工作。该卫星仍在工作。
2D轨道图
3D轨道图
轨道高度分析图
轨道倾角分析图
轨道综合分析图
查看轨道综合分析图